This is the latest recevied weather packets stored in our database for station/object KE8CZD. If no packets are shown the sender has not sent any weather packets the latest 10 day(s).
| Time | Temp. | Humidity | Pressure | Rain* | Wind** | Luminosity | Snow |
|---|---|---|---|---|---|---|---|
| 1778111684 | 10.56° C | 39% | 1009.3 hPa | 0 mm | - | - | - |
| 1778111324 | 10.56° C | 39% | 1009.4 hPa | 0 mm | - | - | - |
| 1778110966 | 10.56° C | 39% | 1009.2 hPa | 0 mm | - | - | - |
| 1778110604 | 10.56° C | 39% | 1009.1 hPa | 0 mm | - | - | - |
| 1778110244 | 10.56° C | 38% | 1009.2 hPa | 0 mm | - | - | - |
| 1778109884 | 11.11° C | 37% | 1009.3 hPa | 0 mm | - | - | - |
| 1778109524 | 11.11° C | 36% | 1009.1 hPa | 0 mm | - | - | - |
| 1778109167 | 11.11° C | 36% | 1009.1 hPa | 0 mm | - | - | - |
| 1778108804 | 11.11° C | 36% | 1009.2 hPa | 0 mm | - | - | - |
| 1778108444 | 11.11° C | 36% | 1009.2 hPa | 0 mm | - | - | - |
| 1778108084 | 11.11° C | 35% | 1009.2 hPa | 0 mm | - | - | - |
| 1778107724 | 11.11° C | 35% | 1009.2 hPa | 0 mm | - | - | - |
| 1778107004 | 11.11° C | 35% | 1009.3 hPa | 0 mm | - | - | - |
| 1778106644 | 11.11° C | 34% | 1009.3 hPa | 0 mm | - | - | - |
| 1778106284 | 11.11° C | 34% | 1009.4 hPa | 0 mm | - | - | - |
| 1778105924 | 11.11° C | 34% | 1009.5 hPa | 0 mm | - | - | - |
| 1778105564 | 11.11° C | 34% | 1009.4 hPa | 0 mm | - | - | - |
| 1778105204 | 11.67° C | 34% | 1009.3 hPa | 0 mm | - | - | - |
| 1778104844 | 11.11° C | 33% | 1009.2 hPa | 0 mm | - | - | - |
| 1778104484 | 11.11° C | 33% | 1009.2 hPa | 0 mm | - | - | - |
| 1778104124 | 11.67° C | 32% | 1009.1 hPa | 0 mm | - | - | - |
| 1778103764 | 12.22° C | 33% | 1009 hPa | 0 mm | - | - | - |
| 1778103404 | 11.67° C | 33% | 1009 hPa | 0 mm | - | - | - |
| 1778103044 | 11.67° C | 35% | 1009.1 hPa | 0 mm | - | - | - |
| 1778102684 | 11.11° C | 35% | 1009.1 hPa | 0 mm | - | - | - |
* Rain latest hour (hover to see other rain measurements)
** Current wind speed in m/s (hover to see current wind gust speed)